[[{"header":{"parameterUnit":"m.s-1","parameterCategory":1,"la1":30.2991,"la2":30.254,"lo1":-89.0895,"lo2":-89.0444,"dy":0.0017,"dx":0.0017,"nx":28,"ny":28,"refTime":"2024-06-11T21:00:00:Z","depth":0,"parameterNumber":2,"parameterNumberName":"U-component_of_WINDS"},"data":[0,0,0,0,0,0,0,0,0,0,0,0,0,0,0,0,0,0,0,0,0,0,0,0,0,0,0,0,0,0,0,0,0,0,0,0,0,0,0,0,0,0,0,0,0,0,0,0,0,0,0,0,0,0,0,0,0,0,-2.1043,-2.1042,0,-2.1011,-2.1011,-2.1011,-2.0882,-2.0879,-2.0876,-2.0874,-2.0846,-2.0848,-2.085,0,0,0,0,0,0,0,0,0,0,0,0,0,-2.0996,-2.0997,-2.1043,-2.1042,-2.1042,-2.1011,-2.1011,-2.101,-2.0883,-2.0879,-2.0876,-2.0872,-2.0845,-2.0847,-2.085,0,0,0,0,0,0,0,0,0,0,0,0,0,-2.0996,-2.0998,-2.1043,-2.0975,-2.0968,-2.1011,-2.1011,-2.101,-2.0884,-2.0879,-2.0875,-2.0871,-2.0844,-2.0847,-2.085,-2.0958,0,0,-2.086,-2.0861,0,0,0,0,0,0,0,0,-2.0996,-2.0998,-2.0985,-2.0979,-2.0972,-2.0946,-2.0984,-2.0993,-2.0885,-2.0916,-2.0874,-2.0868,-2.0883,-2.0883,-2.0887,-2.0957,-2.0956,-2.086,-2.0862,-2.0863,-2.0864,0,0,0,0,0,0,0,-2.0996,-2.0998,-2.103,-2.0985,-2.0977,-2.0947,-2.0942,-2.0985,-2.0925,-2.0913,-2.0903,-2.0901,-2.0879,-2.0884,-2.0885,-2.0955,-2.086,-2.0862,-2.0864,-2.0866,-2.1112,-2.1117,0,0,0,0,0,0,-2.1005,-2.0999,-2.1031,-2.1029,-2.0973,-2.0951,-2.0945,-2.0959,-2.0924,-2.0914,-2.0905,-2.0895,-2.0881,-2.0882,-2.0884,-2.1007,-2.0863,-2.0866,-2.0868,-2.1108,-2.1113,-2.1118,0,0,0,0,0,0,-2.1005,-2.1009,-2.1033,-2.1012,-2.1012,-2.0957,-2.0973,-2.0961,-2.0966,-2.0918,-2.0907,-2.0921,-2.0878,-2.0879,-2.094,-2.1004,-2.0867,-2.087,-2.1102,-2.1109,-2.1116,-2.1256,0,0,0,0,0,0,-2.1004,-2.101,-2.105,-2.1013,-2.1014,-2.1089,-2.0977,-2.0963,-2.0971,-2.0958,-2.0931,-2.0922,-2.0874,-2.0936,-2.0943,-2.1006,-2.0872,-2.1096,-2.1105,-2.1114,-2.1245,-2.1267,-2.1285,0,0,0,0,0,-2.1003,-2.1091,-2.1052,-2.1057,-2.1062,-2.1093,-2.1093,-2.1036,-2.0977,-2.1017,-2.0986,-2.0923,-2.0996,-2.0944,-2.095,-2.1015,-2.1092,-2.1103,-2.1113,-2.1236,-2.1263,-2.1285,0,0,0,0,0,0,-2.1138,-2.1085,-2.1042,-2.1121,-2.1112,-2.1071,-2.112,-2.1066,-2.1075,-2.1062,-2.0991,-2.0986,-2.1058,-2.1042,-2.0985,-2.1118,-2.1033,-2.1046,-2.1125,-2.1149,-2.1169,-2.1171,-2.0875,0,0,0,0,0,-2.1177,-2.1206,-2.1158,-2.1233,-2.1231,-2.1177,-2.1188,-2.1144,-2.1133,-2.1129,-2.1102,-2.1095,-2.1116,-2.1132,-2.1149,-2.1242,-2.1235,-2.129,-2.131,-2.1327,-2.1339,-2.1386,-2.1411,-2.1153,-2.1153,-2.1153,0,0,-2.1259,-2.1233,-2.1256,-2.126,-2.1248,-2.1279,-2.1174,-2.1213,-2.1236,-2.1135,-2.119,-2.1171,-2.1158,-2.1236,-2.1269,-2.1225,-2.1408,-2.1341,-2.1354,-2.1357,-2.14,-2.1424,-2.1446,-2.1161,-2.1159,-2.1158,0,0,-2.1422,-2.1406,-2.1466,-2.1456,-2.1438,-2.1401,-2.1416,-2.1383,-2.1366,-2.142,-2.1345,-2.1372,-2.1411,-2.1404,-2.1406,-2.1567,-2.151,-2.1575,-2.168,-2.1727,-2.1748,-2.1765,-2.1822,-2.1844,-2.1587,-2.1587,-2.1587,0,-2.1526,-2.1569,-2.1504,-2.1547,-2.1551,-2.1459,-2.152,-2.1514,-2.1504,-2.151,-2.1461,-2.1506,-2.1491,-2.1566,-2.1605,-2.161,-2.1625,-2.1578,-2.175,-2.1767,-2.1782,-2.1836,-2.1858,-2.1595,-2.1594,-2.1594,-2.1593,0,-2.1697,-2.1728,-2.1779,-2.177,-2.178,-2.1832,-2.1775,-2.1793,-2.1749,-2.1718,-2.1774,-2.1753,-2.1763,-2.1778,-2.1736,-2.1847,-2.182,-2.1762,-2.1676,-2.1816,-2.1865,-2.1885,-2.1607,-2.1604,-2.1601,-2.16,0,0,-2.1946,-2.1899,-2.1918,-2.1913,-2.1887,-2.191,-2.1958,-2.1967,-2.1984,-2.1981,-2.2019,-2.2054,-2.1999,-2.2001,-2.1957,-2.1999,-2.2128,-2.1935,-2.1934,-2.1971,-2.2249,-2.2292,-2.2317,-2.2089,-2.2093,-2.2096,-2.2249,0,-2.2101,-2.2178,-2.2121,-2.2209,-2.2237,-2.2151,-2.2192,-2.2182,-2.2154,-2.2175,-2.2144,-2.217,-2.2096,-2.2097,-2.2134,-2.2104,-2.2182,-2.2092,-2.2125,-2.2127,-2.213,-2.2343,-2.2389,-2.2535,-2.2268,-2.2272,-2.2274,0,-2.2293,-2.2296,-2.2386,-2.2353,-2.2363,-2.2401,-2.2404,-2.2425,-2.2412,-2.2389,-2.2391,-2.2336,-2.2382,-2.2297,-2.236,-2.23,-2.231,-2.2297,-2.2302,-2.2302,-2.2209,-2.2349,-2.258,-2.2602,-2.2304,-2.2301,-2.2299,0,-2.2464,-2.2491,-2.2548,-2.2546,-2.251,-2.2539,-2.2525,-2.2507,-2.2516,-2.2519,-2.2524,-2.2534,-2.254,-2.2549,-2.2498,-2.2442,-2.2567,-2.2479,-2.255,-2.2551,-2.258,-2.2579,-2.2816,-2.2588,-2.2588,-2.2587,-2.2587,0,-2.2644,-2.2702,-2.2624,-2.266,-2.2723,-2.2657,-2.2722,-2.2699,-2.2684,-2.2714,-2.2641,-2.2671,-2.2602,-2.2626,-2.2587,-2.2644,-2.2647,-2.263,-2.2619,-2.2637,-2.2639,-2.2642,-2.263,-2.2593,-2.2592,-2.259,-2.2589,0,-2.2846,-2.2796,-2.2852,-2.2813,-2.2804,-2.2853,-2.2819,-2.2851,-2.2818,-2.2857,-2.2862,-2.2811,-2.2835,-2.2785,-2.2803,-2.2776,-2.2857,-2.2831,-2.2862,-2.2853,-2.2927,-2.2921,-2.3174,-2.3204,-2.2958,-2.296,-2.2962,0,-2.2963,-2.3006,-2.297,-2.2984,-2.2974,-2.2998,-2.3006,-2.2943,-2.2955,-2.2943,-2.2976,-2.2993,-2.3003,-2.3046,-2.3011,-2.3024,-2.2997,-2.3085,-2.2998,-2.3014,-2.2998,-2.2995,-2.2999,-2.3103,-2.3106,-2.3108,-2.311,0,-2.3177,-2.3149,-2.3163,-2.3169,-2.318,-2.3182,-2.3178,-2.3194,-2.3128,-2.3145,-2.3167,-2.3175,-2.3192,-2.3211,-2.3215,-2.3203,-2.3146,-2.3138,-2.3155,-2.3173,-2.3188,-2.318,-2.291,-2.3132,-2.313,-2.3128,-2.3127,-2.3126,-2.3339,-2.3372,-2.3352,-2.337,-2.3361,-2.3359,-2.3386,-2.3356,-2.3373,-2.3381,-2.3343,-2.3374,-2.336,-2.336,-2.3353,-2.3377,-2.3338,-2.3363,-2.3369,-2.3376,-2.3388,-2.3185,-2.3378,-2.3378,-2.3377,-2.3376,-2.3376,0,-2.3548,-2.353,-2.3547,-2.3544,-2.3558,-2.3502,-2.3495,-2.3511,-2.3539,-2.3529,-2.354,-2.3566,-2.3584,-2.3551,-2.3563,-2.3588,-2.3563,-2.3594,-2.3591,-2.3589,-2.3422,-2.3406,-2.3614,-2.3614,-2.3614,-2.3614,-2.3614,-2.3614,-2.3658,-2.3711,-2.3682,-2.3731,-2.3713,-2.3741,-2.3742,-2.3741,-2.3732,-2.3764,-2.3777,-2.3755,-2.3736,-2.3746,-2.376,-2.375,-2.3758,-2.3798,-2.3779,-2.3624,-2.3601,-2.3578,-2.3563,-2.38,-2.3801,-2.3943,-2.3944,-2.3945]},{"header":{"parameterUnit":"m.s-1","parameterCategory":1,"la1":30.2991,"la2":30.254,"lo1":-89.0895,"lo2":-89.0444,"dy":0.0017,"dx":0.0017,"nx":28,"ny":28,"refTime":"2024-06-11T21:00:00:Z","depth":0,"parameterNumber":3,"parameterNumberName":"V-component_of_WINDS"},"data":[0,0,0,0,0,0,0,0,0,0,0,0,0,0,0,0,0,0,0,0,0,0,0,0,0,0,0,0,0,0,0,0,0,0,0,0,0,0,0,0,0,0,0,0,0,0,0,0,0,0,0,0,0,0,0,0,0,0,-3.2844,-3.2845,0,-3.2898,-3.2899,-3.29,-3.2859,-3.2858,-3.2856,-3.2854,-3.2905,-3.2908,-3.2911,0,0,0,0,0,0,0,0,0,0,0,0,0,-3.2702,-3.2705,-3.2844,-3.2845,-3.2846,-3.2898,-3.2899,-3.29,-3.286,-3.2858,-3.2855,-3.2853,-3.2904,-3.2908,-3.2911,0,0,0,0,0,0,0,0,0,0,0,0,0,-3.276,-3.2706,-3.2844,-3.2832,-3.2832,-3.2898,-3.2899,-3.29,-3.286,-3.2857,-3.2855,-3.2852,-3.2903,-3.2907,-3.2912,-3.2992,0,0,-3.2926,-3.2927,0,0,0,0,0,0,0,0,-3.2757,-3.2766,-3.2833,-3.2833,-3.2833,-3.287,-3.2867,-3.2931,-3.2861,-3.2849,-3.2854,-3.2851,-3.2895,-3.29,-3.2916,-3.2994,-3.2996,-3.2926,-3.2929,-3.2931,-3.2932,0,0,0,0,0,0,0,-3.2753,-3.2763,-3.2865,-3.2834,-3.2834,-3.2822,-3.2828,-3.2879,-3.2886,-3.285,-3.2847,-3.2854,-3.2894,-3.2912,-3.2917,-3.2997,-3.2926,-3.293,-3.2933,-3.2934,-3.3142,-3.3145,0,0,0,0,0,0,-3.2751,-3.276,-3.2864,-3.2867,-3.2788,-3.2827,-3.2833,-3.286,-3.2885,-3.2887,-3.2857,-3.2852,-3.2905,-3.2912,-3.2918,-3.3013,-3.2931,-3.2935,-3.2937,-3.3139,-3.3143,-3.3146,0,0,0,0,0,0,-3.2748,-3.2761,-3.2862,-3.2813,-3.2825,-3.2832,-3.2863,-3.2863,-3.288,-3.289,-3.2891,-3.2873,-3.2903,-3.2912,-3.2974,-3.3014,-3.2937,-3.2941,-3.3136,-3.314,-3.3144,-3.3202,0,0,0,0,0,0,-3.2744,-3.276,-3.2791,-3.2814,-3.2828,-3.2918,-3.2866,-3.2866,-3.2888,-3.2883,-3.2906,-3.2907,-3.2902,-3.2967,-3.2978,-3.3018,-3.2944,-3.3132,-3.3138,-3.3143,-3.3197,-3.3208,-3.3217,0,0,0,0,0,-3.2739,-3.2805,-3.2793,-3.2806,-3.2868,-3.292,-3.2928,-3.2922,-3.2892,-3.2923,-3.2929,-3.2907,-3.3008,-3.2974,-3.2986,-3.3028,-3.313,-3.3136,-3.3142,-3.3192,-3.3206,-3.3217,0,0,0,0,0,0,-3.2785,-3.2808,-3.2795,-3.287,-3.2894,-3.2913,-3.2952,-3.2936,-3.2968,-3.2962,-3.2951,-3.2957,-3.3021,-3.3031,-3.2993,-3.3106,-3.3064,-3.3073,-3.3097,-3.311,-3.3121,-3.3116,-3.2948,0,0,0,0,0,-3.2805,-3.2847,-3.2863,-3.2928,-3.2941,-3.2945,-3.2967,-3.2961,-3.2984,-3.2993,-3.3004,-3.3027,-3.3063,-3.3087,-3.3122,-3.3198,-3.3202,-3.3233,-3.3243,-3.3252,-3.3259,-3.3299,-3.3313,-3.3167,-3.3167,-3.3166,0,0,-3.2844,-3.2861,-3.2889,-3.2938,-3.2955,-3.2998,-3.2953,-3.3,-3.3031,-3.3,-3.3059,-3.3068,-3.3092,-3.3161,-3.3192,-3.3171,-3.3301,-3.326,-3.3267,-3.327,-3.3307,-3.3321,-3.3333,-3.3171,-3.317,-3.3169,0,0,-3.2937,-3.2956,-3.3011,-3.303,-3.3057,-3.3059,-3.3073,-3.3095,-3.31,-3.316,-3.3137,-3.3172,-3.3236,-3.3254,-3.3271,-3.3372,-3.3351,-3.3383,-3.3437,-3.3475,-3.3487,-3.3497,-3.3531,-3.3544,-3.3391,-3.3391,-3.3391,0,-3.2983,-3.3047,-3.3041,-3.309,-3.3112,-3.3087,-3.3142,-3.316,-3.3197,-3.3211,-3.3188,-3.3267,-3.3281,-3.3354,-3.3378,-3.3394,-3.3407,-3.338,-3.3486,-3.3496,-3.3505,-3.3538,-3.3551,-3.3394,-3.3394,-3.3394,-3.3393,0,-3.3101,-3.3146,-3.3187,-3.3225,-3.3251,-3.3302,-3.3303,-3.333,-3.3321,-3.3325,-3.3385,-3.3402,-3.3438,-3.3455,-3.3447,-3.3526,-3.3512,-3.3488,-3.3445,-3.3523,-3.3553,-3.3566,-3.3399,-3.3398,-3.3397,-3.3396,0,0,-3.3224,-3.3258,-3.3273,-3.3289,-3.3318,-3.3352,-3.3401,-3.3439,-3.3462,-3.3488,-3.3528,-3.3583,-3.356,-3.358,-3.3573,-3.3607,-3.3684,-3.3578,-3.3578,-3.3596,-3.377,-3.3788,-3.3802,-3.3671,-3.3673,-3.3675,-3.3768,0,-3.3318,-3.3406,-3.3402,-3.3484,-3.3525,-3.3502,-3.3545,-3.3566,-3.3572,-3.3605,-3.361,-3.3649,-3.3617,-3.3628,-3.3661,-3.3667,-3.3718,-3.3661,-3.3706,-3.3708,-3.37,-3.3819,-3.3837,-3.3924,-3.378,-3.3782,-3.3783,0,-3.3439,-3.3471,-3.3557,-3.3579,-3.3596,-3.3635,-3.3668,-3.3702,-3.3725,-3.3726,-3.3748,-3.3736,-3.3784,-3.3741,-3.3807,-3.3768,-3.3786,-3.3792,-3.3795,-3.3798,-3.375,-3.3823,-3.3952,-3.3964,-3.3802,-3.3801,-3.3799,0,-3.3519,-3.3583,-3.3642,-3.3657,-3.3685,-3.3712,-3.3725,-3.3745,-3.3768,-3.3797,-3.3811,-3.3845,-3.3863,-3.3888,-3.3884,-3.3854,-3.3951,-3.3908,-3.3952,-3.3952,-3.3972,-3.3971,-3.4104,-3.3987,-3.3986,-3.3986,-3.3986,0,-3.3623,-3.3676,-3.3678,-3.3715,-3.3774,-3.3768,-3.3826,-3.3835,-3.3853,-3.389,-3.3872,-3.3907,-3.39,-3.3934,-3.3931,-3.3985,-3.3994,-3.3995,-3.3993,-3.3996,-3.3995,-3.4007,-3.4,-3.399,-3.3989,-3.3988,-3.3988,0,-3.3721,-3.3725,-3.3788,-3.381,-3.3816,-3.3858,-3.3875,-3.3909,-3.3913,-3.396,-3.397,-3.3976,-3.4015,-3.4014,-3.4058,-3.4056,-3.4122,-3.4114,-3.4114,-3.4112,-3.4156,-3.4151,-3.43,-3.4318,-3.419,-3.4191,-3.4192,0,-3.3787,-3.3828,-3.3853,-3.3877,-3.3892,-3.3931,-3.3954,-3.395,-3.3974,-3.4004,-3.4033,-3.4071,-3.4101,-3.4164,-3.4171,-3.4204,-3.4196,-3.4246,-3.42,-3.4202,-3.4195,-3.4192,-3.4195,-3.4254,-3.4255,-3.4257,-3.4257,0,-3.3902,-3.3902,-3.3937,-3.3973,-3.4002,-3.4029,-3.4054,-3.4075,-3.4073,-3.4101,-3.4142,-3.4165,-3.421,-3.4247,-3.4279,-3.429,-3.4273,-3.4272,-3.4284,-3.4286,-3.4284,-3.4284,-3.4137,-3.4268,-3.4267,-3.4266,-3.4266,-3.4265,-3.3985,-3.402,-3.4044,-3.4083,-3.4102,-3.4126,-3.4159,-3.4167,-3.4201,-3.4239,-3.4234,-3.4279,-3.4299,-3.4341,-3.4355,-3.4388,-3.4371,-3.4388,-3.4392,-3.4396,-3.44,-3.428,-3.4394,-3.4394,-3.4394,-3.4394,-3.4393,0,-3.4099,-3.4113,-3.4149,-3.4186,-3.4216,-3.42,-3.4227,-3.4253,-3.4293,-3.4315,-3.4345,-3.4391,-3.4426,-3.4437,-3.4471,-3.4496,-3.4489,-3.4505,-3.4502,-3.4504,-3.4415,-3.4401,-3.451,-3.451,-3.451,-3.451,-3.451,-3.4509,-3.4161,-3.4219,-3.4222,-3.4288,-3.4301,-3.4346,-3.4363,-3.4384,-3.4402,-3.4454,-3.4484,-3.4491,-3.4508,-3.4543,-3.4575,-3.4576,-3.4589,-3.4608,-3.4607,-3.4522,-3.4511,-3.45,-3.4486,-3.4611,-3.4611,-3.4693,-3.4694,-3.4694]}]]